Weather reports worldwide

Advertisment
St. Mary's, United Kingdom (3803): temperature & dewpoint: 25.03.2020 11:00:00 - 31.03.2020 11:00:00 (BST)St. Mary's, United Kingdom (3803): temperature -20cm: 25.03.2020 11:00:00 - 31.03.2020 11:00:00 (BST)St. Mary's, United Kingdom (3803): wind speed & gusts: 25.03.2020 11:00:00 - 31.03.2020 11:00:00 (BST)St. Mary's, United Kingdom (3803): wind direction: 25.03.2020 11:00:00 - 31.03.2020 11:00:00 (BST)St. Mary's, United Kingdom (3803): reduced air pressure: 25.03.2020 11:00:00 - 31.03.2020 11:00:00 (BST)St. Mary's, United Kingdom (3803): visibility: 25.03.2020 11:00:00 - 31.03.2020 11:00:00 (BST)St. Mary's, United Kingdom (3803): precipitation: 25.03.2020 11:00:00 - 31.03.2020 11:00:00 (BST)
Date & Time tt [°C] td [°C] tt -20cm [°C] ff [km/h] ff [kn] fx [km/h] fx [kn] dd ppp [hPa] vv [km] rr [mm]
31.03.2020 11:00:00 8,0 1,3 - 39 21 54 29 ENE 1031,6 10 0,0
31.03.2020 10:00:00 7,6 1,3 9,2 42 23 59 32 ENE 1031,5 10 0,0
31.03.2020 09:00:00 7,4 1,3 - 41 22 63 34 ENE 1031,2 10 0,0
31.03.2020 08:00:00 7,4 2,0 - 48 26 65 35 ENE 1031,0 35 0,0
31.03.2020 07:00:00 8,1 3,3 - 39 21 54 29 ENE 1030,7 30 0,0
31.03.2020 06:00:00 8,2 3,6 - 37 20 55 30 NE 1030,4 30 0,0
31.03.2020 05:00:00 8,3 3,6 - 34 18 55 30 NE 1030,6 35 0,0
31.03.2020 04:00:00 8,2 3,5 - 37 20 52 28 NE 1031,1 35 0,0
31.03.2020 03:00:00 8,4 3,6 - 39 21 59 32 NE 1031,3 28 0,0
31.03.2020 02:00:00 8,4 3,5 - 39 21 57 31 NE 1031,7 40 0,0
31.03.2020 01:00:00 8,4 2,7 - 46 25 61 33 NE 1031,9 35 0,0
31.03.2020 00:00:00 8,6 3,1 - 39 21 55 30 NE 1032,0 50 0,0
30.03.2020 23:00:00 8,9 3,7 - 34 18 54 29 NE 1032,1 45 0,0
30.03.2020 22:00:00 8,8 4,2 - 37 20 50 27 NNE 1032,3 35 0,0
30.03.2020 21:00:00 8,6 3,4 - 31 17 52 28 NNE 1032,4 45 0,0
30.03.2020 20:00:00 8,5 3,6 - 31 17 50 27 NNE 1032,2 45 0,0
30.03.2020 19:00:00 8,4 3,9 - 35 19 54 29 NNE 1032,2 26 0,0
30.03.2020 18:00:00 8,6 3,6 - 35 19 48 26 NNE 1032,5 45 0,0
30.03.2020 17:00:00 9,3 4,4 - 34 18 46 25 NNE 1033,0 35 0,0
30.03.2020 16:00:00 9,4 4,1 - 34 18 - - NNE 1033,9 10 0,0
30.03.2020 15:00:00 9,5 4,0 - 34 18 46 25 NE 1034,7 30 0,0
30.03.2020 14:00:00 8,8 2,5 - 31 17 50 27 NE 1035,5 35 0,0
30.03.2020 13:00:00 9,3 3,4 - 31 17 - - NE 1036,2 45 0,0
30.03.2020 12:00:00 8,1 1,7 - 31 17 - - NNE 1037,1 35 0,0
30.03.2020 11:00:00 7,6 0,0 - 29 16 50 27 NE 1037,6 40 0,0
30.03.2020 10:00:00 6,3 -0,5 8,7 35 19 54 29 NE 1038,2 10 0,0
30.03.2020 09:00:00 5,8 -0,4 - 35 19 52 28 NE 1038,3 10 0,0
30.03.2020 08:00:00 5,3 -1,5 - 34 18 52 28 NE 1038,4 35 0,0
30.03.2020 07:00:00 5,2 -1,8 - 31 17 50 27 NE 1038,3 50 0,0
30.03.2020 06:00:00 5,3 -2,4 - 39 21 50 27 ENE 1038,3 50 0,0
30.03.2020 05:00:00 5,4 -2,7 - 29 16 46 25 ENE 1038,7 50 0,0
30.03.2020 04:00:00 5,6 -2,8 - 37 20 50 27 ENE 1039,1 45 0,0
30.03.2020 03:00:00 5,5 -2,6 - 37 20 48 26 ENE 1039,5 50 0,0
30.03.2020 02:00:00 6,0 -1,7 - 37 20 55 30 ENE 1040,0 45 0,0
30.03.2020 01:00:00 6,4 -2,2 - 39 21 57 31 ENE 1040,3 45 0,0
30.03.2020 00:00:00 6,6 -2,0 - 52 28 65 35 ENE 1040,3 40 0,0
29.03.2020 23:00:00 7,2 -2,5 - 42 23 55 30 ENE 1040,0 50 0,0
29.03.2020 22:00:00 7,8 -2,2 - 37 20 61 33 NE 1039,7 40 0,0
29.03.2020 21:00:00 7,7 -2,1 - 41 22 61 33 NE 1039,6 50 0,0
29.03.2020 20:00:00 7,5 -1,3 - 44 24 67 36 NE 1039,2 40 0,0
29.03.2020 19:00:00 7,6 -1,8 - 46 25 61 33 NNE 1039,1 40 0,0
29.03.2020 18:00:00 7,8 -1,4 - 42 23 67 36 NNE 1038,8 20 0,0
29.03.2020 17:00:00 7,9 -0,5 - 41 22 63 34 NNE 1038,8 20 0,0
29.03.2020 16:00:00 7,7 -1,3 - 42 23 65 35 NNE 1038,9 35 0,0
29.03.2020 15:00:00 7,5 -0,7 - 44 24 65 35 NE 1039,0 30 0,0
29.03.2020 14:00:00 7,4 -2,0 - 42 23 65 35 NE 1039,1 40 0,0
29.03.2020 13:00:00 7,1 -1,4 - 44 24 61 33 NE 1039,3 16 0,0
29.03.2020 12:00:00 6,6 -1,8 - 46 25 67 36 NE 1039,5 45 0,0
29.03.2020 11:00:00 5,8 -2,6 - 54 29 72 39 ENE 1039,3 35 0,0
29.03.2020 10:00:00 6,1 -3,3 9,2 54 29 76 41 NE 1039,0 35 0,0
29.03.2020 09:00:00 5,8 -3,9 - 57 31 76 41 ENE 1038,7 23 0,0
29.03.2020 08:00:00 5,4 -1,8 - 57 31 80 43 ENE 1037,8 30 0,0
29.03.2020 07:00:00 5,2 -1,0 - 55 30 76 41 ENE 1037,1 22 0,0
29.03.2020 06:00:00 5,6 -0,6 - 52 28 68 37 NE 1036,1 35 0,0
29.03.2020 05:00:00 5,8 -1,5 - 50 27 70 38 ENE 1035,6 40 0,0
29.03.2020 04:00:00 6,3 -0,3 - 48 26 74 40 ENE 1035,3 40 0,0
29.03.2020 03:00:00 7,0 -0,9 - 57 31 76 41 ENE 1035,0 40 0,0
29.03.2020 02:00:00 7,8 0,5 - 46 25 63 34 NE 1034,6 45 0,0
29.03.2020 01:00:00 8,5 3,0 - 41 22 57 31 NE 1033,9 45 0,0
29.03.2020 00:00:00 8,7 2,9 - 41 22 59 32 NE 1033,1 30 0,0
28.03.2020 23:00:00 8,9 2,3 - 44 24 67 36 NE 1032,3 40 0,0
28.03.2020 22:00:00 9,1 3,7 - 42 23 57 31 ENE 1031,7 35 0,0
28.03.2020 21:00:00 9,3 4,5 - 39 21 59 32 NE 1031,1 35 0,0
28.03.2020 20:00:00 9,3 5,0 - 42 23 59 32 NE 1030,2 22 0,0
28.03.2020 19:00:00 9,5 5,1 - 41 22 59 32 NNE 1029,5 28 0,0
28.03.2020 18:00:00 10,0 5,2 - 41 22 63 34 NNE 1028,5 19 0,0
28.03.2020 17:00:00 9,9 5,2 - 39 21 63 34 NNE 1028,3 23 0,0
28.03.2020 16:00:00 9,9 5,6 - 41 22 63 34 NNE 1028,3 18 0,0
28.03.2020 15:00:00 9,9 4,6 - 44 24 63 34 NNE 1028,3 11 0,0
28.03.2020 14:00:00 9,6 3,7 - 44 24 59 32 NE 1028,4 22 0,0
28.03.2020 13:00:00 9,3 3,5 - 37 20 52 28 NE 1028,3 17 0,0
28.03.2020 12:00:00 8,8 3,1 - 35 19 52 28 NE 1028,2 17 0,0
28.03.2020 11:00:00 8,6 2,8 - 37 20 52 28 NE 1027,9 18 0,0
28.03.2020 10:00:00 8,3 2,4 9,5 37 20 54 29 NE 1027,4 10 0,0
28.03.2020 09:00:00 7,9 2,4 - 34 18 48 26 NE 1026,9 12 0,0
28.03.2020 08:00:00 7,4 2,7 - 34 18 46 25 NE 1026,4 23 0,0
28.03.2020 07:00:00 7,4 2,4 - 31 17 - - NE 1026,0 26 0,0
28.03.2020 06:00:00 7,5 2,4 - 29 16 - - NE 1025,8 28 0,0
28.03.2020 05:00:00 8,1 2,5 - 31 17 - - NE 1025,4 26 0,0
28.03.2020 04:00:00 8,6 2,9 - 28 15 - - NE 1025,2 24 0,0
28.03.2020 03:00:00 8,9 4,7 - 22 12 - - NE 1025,5 17 0,0
28.03.2020 02:00:00 8,7 4,6 - 26 14 - - NNE 1025,4 17 0,0
28.03.2020 01:00:00 8,5 5,3 - 22 12 57 31 NNE 1025,4 12 0,0
28.03.2020 00:00:00 8,5 5,3 - 21 11 - - NNE 1025,5 14 0,0
27.03.2020 23:00:00 8,5 5,9 - 18 10 - - NE 1025,4 10 0,0
27.03.2020 22:00:00 8,5 5,6 - 21 11 - - NE 1025,0 11 0,0
27.03.2020 21:00:00 8,5 5,4 - 18 10 - - ENE 1024,7 11 0,0
27.03.2020 20:00:00 8,6 4,9 - 28 15 - - NE 1024,0 14 0,0
27.03.2020 19:00:00 8,9 5,1 - 24 13 - - NE 1023,6 12 0,0
27.03.2020 18:00:00 9,3 5,3 - 22 12 - - NE 1023,2 12 0,0
27.03.2020 17:00:00 9,7 5,5 - 24 13 - - NE 1023,2 10 0,0
27.03.2020 16:00:00 9,8 4,2 - 24 13 - - NE 1023,4 19 0,0
27.03.2020 15:00:00 9,8 3,4 - 22 12 - - NE 1023,5 21 0,0
27.03.2020 14:00:00 9,8 3,3 - 22 12 - - NE 1023,7 24 0,0
27.03.2020 13:00:00 9,1 2,9 - 18 10 - - NE 1024,1 19 0,0
27.03.2020 12:00:00 9,6 3,9 - 21 11 - - E 1024,2 10 0,0
27.03.2020 11:00:00 9,1 3,8 - 22 12 - - E 1024,1 10 0,0
27.03.2020 10:00:00 8,8 4,3 9,5 24 13 - - E 1023,7 10 0,0
27.03.2020 09:00:00 8,8 4,4 - 18 10 - - E 1023,0 16 0,0
27.03.2020 08:00:00 7,7 4,0 - 18 10 - - E 1022,6 20 0,0
27.03.2020 07:00:00 6,7 4,1 - 15 8 - - NE 1022,2 12 0,0
27.03.2020 06:00:00 6,2 3,8 - 11 6 - - NE 1021,9 14 0,0
27.03.2020 05:00:00 6,4 4,9 - 9 5 - - NNE 1021,8 10 0,0
27.03.2020 04:00:00 6,7 5,1 - 9 5 - - NE 1022,0 8 0,0
27.03.2020 03:00:00 8,0 6,1 - 15 8 - - E 1022,2 11 0,0
27.03.2020 02:00:00 8,0 6,5 - 16 9 - - ENE 1022,3 12 0,0
27.03.2020 01:00:00 7,7 6,1 - 13 7 - - NNE 1022,3 9 0,0
27.03.2020 00:00:00 7,7 5,9 - 13 7 - - NNE 1022,5 10 0,0
26.03.2020 23:00:00 7,4 5,3 - 13 7 - - N 1022,5 11 0,0
26.03.2020 22:00:00 7,8 5,4 - 11 6 - - N 1022,4 11 0,0
26.03.2020 21:00:00 7,5 3,5 - 8 4 - - N 1022,5 19 0,0
26.03.2020 20:00:00 7,9 2,8 - 9 5 - - NNE 1022,0 20 0,0
26.03.2020 19:00:00 9,4 3,2 - 13 7 - - NE 1021,8 20 0,0
26.03.2020 18:00:00 10,1 2,6 - 15 8 - - E 1021,7 18 0,0
26.03.2020 17:00:00 10,6 3,8 - 16 9 - - E 1021,8 35 0,0
26.03.2020 16:00:00 11,1 3,3 - 15 8 - - NE 1021,9 10 0,0
26.03.2020 15:00:00 10,6 2,4 - 16 9 - - ENE 1022,1 10 0,0
26.03.2020 14:00:00 10,3 3,7 - 16 9 - - E 1022,2 27 0,0
26.03.2020 13:00:00 10,0 3,0 - 16 9 - - E 1022,4 27 0,0
26.03.2020 12:00:00 9,8 3,1 - 16 9 - - E 1022,4 10 0,0
26.03.2020 11:00:00 10,0 5,8 - 18 10 - - E 1022,3 10 0,0
26.03.2020 10:00:00 9,8 7,6 9,7 13 7 - - NE 1022,2 8 0,0
26.03.2020 09:00:00 8,9 7,1 - 15 8 - - NE 1021,9 22 0,0
26.03.2020 08:00:00 7,4 6,0 - 11 6 - - NNE 1021,8 14 0,0
26.03.2020 07:00:00 7,2 5,1 - 11 6 - - N 1021,6 27 0,0
26.03.2020 06:00:00 6,9 4,9 - 13 7 - - NNE 1021,7 20 0,0
26.03.2020 05:00:00 6,8 4,5 - 13 7 - - NNE 1021,6 26 0,0
26.03.2020 04:00:00 6,5 3,2 - 9 5 - - NNE 1021,7 50 0,0
26.03.2020 03:00:00 7,1 3,9 - 13 7 - - ENE 1022,0 35 0,0
26.03.2020 02:00:00 7,6 4,3 - 16 9 - - ENE 1021,9 45 0,0
26.03.2020 01:00:00 7,7 4,4 - 16 9 - - E 1022,0 30 0,0
26.03.2020 00:00:00 8,2 4,4 - 21 11 - - E 1021,8 45 0,0
25.03.2020 23:00:00 8,1 4,8 - 22 12 - - E 1022,2 35 0,0
25.03.2020 22:00:00 8,4 4,4 - 22 12 - - E 1022,5 45 0,0
25.03.2020 21:00:00 8,5 4,9 - 18 10 - - E 1022,4 28 0,0
25.03.2020 20:00:00 8,8 4,9 - 16 9 - - E 1022,0 30 0,0
25.03.2020 19:00:00 9,8 5,3 - 21 11 - - E 1021,8 27 0,0
25.03.2020 18:00:00 10,8 6,2 - 21 11 - - ESE 1021,5 25 0,0
25.03.2020 17:00:00 11,0 8,0 - 16 9 - - ESE 1021,5 7 0,0
25.03.2020 16:00:00 11,2 8,8 - 15 8 - - ESE 1021,5 7 0,0
25.03.2020 15:00:00 11,3 9,1 - 13 7 - - ESE 1021,7 8 0,0
25.03.2020 14:00:00 11,5 9,1 - 18 10 - - ESE 1021,4 14 0,0
25.03.2020 13:00:00 11,4 8,9 - 15 8 - - ESE 1021,5 12 0,0
25.03.2020 12:00:00 11,2 9,1 - 24 13 - - ESE 1021,3 8 0,0
25.03.2020 11:00:00 - - - - - - - - - - -

tt = temperature
td = dewpoint
tt -20cm = temperature -20cm
ff = wind speed
fx = gusts
dd = wind direction
ppp = reduced air pressure
vv = visibility
rr = precipitation

Next stations